SES-10

Last updated on Tue Jul 08 2025 00:02:47 GMT+0000 (Coordinated Universal Time)

1 42432U 17017A 25188.55029550 -.00000255 00000+0 00000+0 0 9997 2 42432 0.0104 15.8622 0002806 89.9982 311.1058 1.00269703 30287
UTC large
Height (km)
Speed (km/s)
/
Latitude / Longitude
Inclination (degrees)
Orbital Period (minutes)
Azimuth
Elevation
Range (km)
Doppler Factor

Next 0 passes for location: London (51.5072 / 0.1276)

Sorry there are no passes over London.